Wetterdaten: Mittwoch, 24.06.2015
Datum Zeit Temp. A. Feuchte A. Luftdruck Regen Wind Richtung Richtung Sonnenschein ET UV Solar Taupunkt Windchill Windben Empfang
24.06.2015 00:00 10,8 C 81 % 1017,7 hPa 0,0 l/m 4,3 km/h (1 Bft) W 270 0 min 0,000 mm 0,0 UV-I 0 W/m 7,7 C 10,8 C 7,9 km/h (2 Bft) 0,00 %
24.06.2015 00:05 10,8 C 80 % 1017,8 hPa 0,0 l/m 0,0 km/h (0 Bft) SW 216 0 min 0,000 mm 0,0 UV-I 0 W/m 7,5 C 10,8 C 0,0 km/h (0 Bft) 0,00 %
24.06.2015 00:10 10,7 C 81 % 1017,8 hPa 0,0 l/m 0,0 km/h (0 Bft) S 186 0 min 0,000 mm 0,0 UV-I 0 W/m 7,6 C 10,7 C 0,0 km/h (0 Bft) 0,00 %
24.06.2015 00:15 10,6 C 81 % 1017,9 hPa 0,0 l/m 0,0 km/h (0 Bft) SO 134 0 min 0,000 mm 0,0 UV-I 0 W/m 7,5 C 10,6 C 0,0 km/h (0 Bft) 0,00 %
24.06.2015 00:20 10,5 C 81 % 1017,9 hPa 0,0 l/m 0,0 km/h (0 Bft) S-SW 202 0 min 0,000 mm 0,0 UV-I 0 W/m 7,4 C 10,5 C 0,0 km/h (0 Bft) 0,00 %
24.06.2015 00:25 10,4 C 82 % 1018,1 hPa 0,0 l/m 0,0 km/h (0 Bft) S-SW 208 0 min 0,000 mm 0,0 UV-I 0 W/m 7,5 C 10,4 C 0,0 km/h (0 Bft) 0,00 %
24.06.2015 00:30 10,3 C 82 % 1018,1 hPa 0,0 l/m 0,0 km/h (0 Bft) W-SW 255 0 min 0,000 mm 0,0 UV-I 0 W/m 7,4 C 10,3 C 0,0 km/h (0 Bft) 0,00 %
24.06.2015 00:35 10,2 C 82 % 1018,2 hPa 0,0 l/m 0,0 km/h (0 Bft) SO 144 0 min 0,000 mm 0,0 UV-I 0 W/m 7,3 C 10,2 C 0,0 km/h (0 Bft) 0,00 %
24.06.2015 00:40 10,0 C 83 % 1018,0 hPa 0,0 l/m 0,0 km/h (0 Bft) SO 124 0 min 0,000 mm 0,0 UV-I 0 W/m 7,2 C 10,0 C 0,0 km/h (0 Bft) 0,00 %
24.06.2015 00:45 9,9 C 84 % 1018,3 hPa 0,0 l/m 0,4 km/h (0 Bft) O-SO 113 0 min 0,000 mm 0,0 UV-I 0 W/m 7,3 C 9,9 C 4,0 km/h (1 Bft) 0,00 %
24.06.2015 00:50 9,8 C 84 % 1018,3 hPa 0,0 l/m 0,0 km/h (0 Bft) S 173 0 min 0,000 mm 0,0 UV-I 0 W/m 7,2 C 9,8 C 0,0 km/h (0 Bft) 0,00 %
24.06.2015 00:55 9,7 C 85 % 1018,4 hPa 0,0 l/m 0,0 km/h (0 Bft) SO 133 0 min 0,000 mm 0,0 UV-I 0 W/m 7,3 C 9,7 C 0,0 km/h (0 Bft) 0,00 %
24.06.2015 01:00 9,6 C 85 % 1018,2 hPa 0,0 l/m 0,0 km/h (0 Bft) S 180 0 min 0,000 mm 0,0 UV-I 0 W/m 7,2 C 9,6 C 0,0 km/h (0 Bft) 0,00 %
24.06.2015 01:05 9,6 C 85 % 1018,4 hPa 0,0 l/m 0,0 km/h (0 Bft) S-SO 148 0 min 0,000 mm 0,0 UV-I 0 W/m 7,2 C 9,6 C 0,0 km/h (0 Bft) 0,00 %
24.06.2015 01:10 9,4 C 86 % 1018,5 hPa 0,0 l/m 0,0 km/h (0 Bft) S 187 0 min 0,000 mm 0,0 UV-I 0 W/m 7,2 C 9,4 C 0,0 km/h (0 Bft) 0,00 %
24.06.2015 01:15 9,4 C 87 % 1018,6 hPa 0,0 l/m 0,0 km/h (0 Bft) S 188 0 min 0,000 mm 0,0 UV-I 0 W/m 7,3 C 9,4 C 0,0 km/h (0 Bft) 0,00 %
24.06.2015 01:20 9,3 C 87 % 1018,5 hPa 0,0 l/m 0,0 km/h (0 Bft) S-SW 197 0 min 0,000 mm 0,0 UV-I 0 W/m 7,2 C 9,3 C 0,0 km/h (0 Bft) 0,00 %
24.06.2015 01:25 9,3 C 88 % 1018,4 hPa 0,0 l/m 0,0 km/h (0 Bft) SW 222 0 min 0,000 mm 0,0 UV-I 0 W/m 7,4 C 9,3 C 0,0 km/h (0 Bft) 0,00 %
24.06.2015 01:30 9,2 C 88 % 1018,7 hPa 0,0 l/m 0,0 km/h (0 Bft) S 186 0 min 0,000 mm 0,0 UV-I 0 W/m 7,3 C 9,2 C 0,0 km/h (0 Bft) 0,00 %
24.06.2015 01:35 9,2 C 88 % 1018,8 hPa 0,0 l/m 0,0 km/h (0 Bft) SW 231 0 min 0,000 mm 0,0 UV-I 0 W/m 7,3 C 9,2 C 0,0 km/h (0 Bft) 0,00 %
24.06.2015 01:40 9,2 C 88 % 1018,8 hPa 0,0 l/m 0,0 km/h (0 Bft) S 183 0 min 0,000 mm 0,0 UV-I 0 W/m 7,3 C 9,2 C 0,0 km/h (0 Bft) 0,00 %
24.06.2015 01:45 9,2 C 88 % 1018,7 hPa 0,0 l/m 0,0 km/h (0 Bft) S 173 0 min 0,000 mm 0,0 UV-I 0 W/m 7,3 C 9,2 C 0,0 km/h (0 Bft) 0,00 %
24.06.2015 01:50 9,3 C 87 % 1018,5 hPa 0,0 l/m 0,0 km/h (0 Bft) SO 128 0 min 0,000 mm 0,0 UV-I 0 W/m 7,2 C 9,3 C 0,0 km/h (0 Bft) 0,00 %
24.06.2015 01:55 9,4 C 87 % 1018,6 hPa 0,0 l/m 0,0 km/h (0 Bft) S 172 0 min 0,000 mm 0,0 UV-I 0 W/m 7,3 C 9,4 C 0,0 km/h (0 Bft) 0,00 %
24.06.2015 02:00 9,4 C 87 % 1018,6 hPa 0,0 l/m 0,4 km/h (0 Bft) W-SW 238 0 min 0,000 mm 0,0 UV-I 0 W/m 7,3 C 9,4 C 4,0 km/h (1 Bft) 0,00 %
24.06.2015 02:05 9,4 C 87 % 1018,6 hPa 0,0 l/m 0,0 km/h (0 Bft) S 173 0 min 0,000 mm 0,0 UV-I 0 W/m 7,3 C 9,4 C 0,0 km/h (0 Bft) 0,00 %
24.06.2015 02:10 9,4 C 87 % 1018,6 hPa 0,0 l/m 0,0 km/h (0 Bft) O-NO 61 0 min 0,000 mm 0,0 UV-I 0 W/m 7,3 C 9,4 C 0,0 km/h (0 Bft) 0,00 %
24.06.2015 02:15 9,4 C 86 % 1018,8 hPa 0,0 l/m 0,0 km/h (0 Bft) SO 131 0 min 0,000 mm 0,0 UV-I 0 W/m 7,2 C 9,4 C 0,0 km/h (0 Bft) 0,00 %
24.06.2015 02:20 9,4 C 86 % 1018,8 hPa 0,0 l/m 0,0 km/h (0 Bft) SW 223 0 min 0,000 mm 0,0 UV-I 0 W/m 7,2 C 9,4 C 0,0 km/h (0 Bft) 0,00 %
24.06.2015 02:25 9,4 C 86 % 1019,1 hPa 0,0 l/m 0,0 km/h (0 Bft) S-SW 207 0 min 0,000 mm 0,0 UV-I 0 W/m 7,2 C 9,4 C 0,0 km/h (0 Bft) 0,00 %
24.06.2015 02:30 9,5 C 86 % 1019,0 hPa 0,0 l/m 0,0 km/h (0 Bft) SW 218 0 min 0,000 mm 0,0 UV-I 0 W/m 7,3 C 9,5 C 0,0 km/h (0 Bft) 0,00 %
24.06.2015 02:35 9,6 C 85 % 1019,0 hPa 0,0 l/m 0,4 km/h (0 Bft) SW 223 0 min 0,000 mm 0,0 UV-I 0 W/m 7,2 C 9,6 C 4,0 km/h (1 Bft) 0,00 %
24.06.2015 02:40 9,6 C 85 % 1018,9 hPa 0,0 l/m 0,0 km/h (0 Bft) SW 223 0 min 0,000 mm 0,0 UV-I 0 W/m 7,2 C 9,6 C 0,0 km/h (0 Bft) 0,00 %
24.06.2015 02:45 9,7 C 85 % 1018,9 hPa 0,0 l/m 0,0 km/h (0 Bft) W-SW 252 0 min 0,000 mm 0,0 UV-I 0 W/m 7,3 C 9,7 C 0,0 km/h (0 Bft) 0,00 %
24.06.2015 02:50 9,8 C 84 % 1018,9 hPa 0,0 l/m 0,0 km/h (0 Bft) W-SW 251 0 min 0,000 mm 0,0 UV-I 0 W/m 7,2 C 9,8 C 0,0 km/h (0 Bft) 0,00 %
24.06.2015 02:55 9,9 C 83 % 1019,1 hPa 0,0 l/m 0,4 km/h (0 Bft) S 180 0 min 0,000 mm 0,0 UV-I 0 W/m 7,2 C 9,9 C 4,0 km/h (1 Bft) 0,00 %
24.06.2015 03:00 9,9 C 83 % 1019,0 hPa 0,0 l/m 1,8 km/h (1 Bft) W-SW 252 0 min 0,000 mm 0,0 UV-I 0 W/m 7,2 C 9,9 C 4,0 km/h (1 Bft) 0,00 %
24.06.2015 03:05 10,0 C 83 % 1019,1 hPa 0,0 l/m 0,4 km/h (0 Bft) S 189 0 min 0,000 mm 0,0 UV-I 0 W/m 7,2 C 10,0 C 4,0 km/h (1 Bft) 0,00 %
24.06.2015 03:10 10,0 C 83 % 1019,0 hPa 0,0 l/m 0,0 km/h (0 Bft) S 191 0 min 0,000 mm 0,0 UV-I 0 W/m 7,2 C 10,0 C 0,0 km/h (0 Bft) 0,00 %
24.06.2015 03:15 10,0 C 83 % 1019,1 hPa 0,0 l/m 6,5 km/h (2 Bft) W-SW 256 0 min 0,000 mm 0,0 UV-I 0 W/m 7,2 C 10,0 C 7,9 km/h (2 Bft) 0,00 %
24.06.2015 03:20 10,0 C 83 % 1019,2 hPa 0,0 l/m 1,4 km/h (1 Bft) W-SW 256 0 min 0,000 mm 0,0 UV-I 0 W/m 7,2 C 10,0 C 4,0 km/h (1 Bft) 0,00 %
24.06.2015 03:25 10,0 C 84 % 1019,2 hPa 0,0 l/m 0,0 km/h (0 Bft) O 81 0 min 0,000 mm 0,0 UV-I 0 W/m 7,4 C 10,0 C 0,0 km/h (0 Bft) 0,00 %
24.06.2015 03:30 10,0 C 84 % 1019,0 hPa 0,0 l/m 0,0 km/h (0 Bft) W-SW 253 0 min 0,000 mm 0,0 UV-I 0 W/m 7,4 C 10,0 C 0,0 km/h (0 Bft) 0,00 %
24.06.2015 03:35 9,9 C 86 % 1019,0 hPa 0,0 l/m 0,0 km/h (0 Bft) W 269 0 min 0,000 mm 0,0 UV-I 0 W/m 7,7 C 9,9 C 0,0 km/h (0 Bft) 0,00 %
24.06.2015 03:40 9,8 C 86 % 1019,0 hPa 0,0 l/m 1,4 km/h (1 Bft) W 260 0 min 0,000 mm 0,0 UV-I 0 W/m 7,6 C 9,8 C 4,0 km/h (1 Bft) 0,00 %
24.06.2015 03:45 9,8 C 87 % 1019,0 hPa 0,0 l/m 0,0 km/h (0 Bft) SW 235 0 min 0,000 mm 0,0 UV-I 0 W/m 7,7 C 9,8 C 0,0 km/h (0 Bft) 0,00 %
24.06.2015 03:50 9,7 C 87 % 1019,1 hPa 0,0 l/m 0,0 km/h (0 Bft) S 174 0 min 0,000 mm 0,0 UV-I 0 W/m 7,6 C 9,7 C 0,0 km/h (0 Bft) 0,00 %
24.06.2015 03:55 9,7 C 87 % 1019,1 hPa 0,0 l/m 1,4 km/h (1 Bft) W-SW 256 0 min 0,000 mm 0,0 UV-I 0 W/m 7,6 C 9,7 C 4,0 km/h (1 Bft) 0,00 %
24.06.2015 04:00 9,7 C 88 % 1019,1 hPa 0,0 l/m 0,0 km/h (0 Bft) S 191 0 min 0,000 mm 0,0 UV-I 0 W/m 7,8 C 9,7 C 0,0 km/h (0 Bft) 0,00 %
24.06.2015 04:05 9,6 C 88 % 1019,2 hPa 0,0 l/m 0,0 km/h (0 Bft) S 178 0 min 0,000 mm 0,0 UV-I 0 W/m 7,7 C 9,6 C 0,0 km/h (0 Bft) 0,00 %
24.06.2015 04:10 9,6 C 88 % 1019,4 hPa 0,0 l/m 0,0 km/h (0 Bft) NO 46 0 min 0,000 mm 0,0 UV-I 0 W/m 7,7 C 9,6 C 0,0 km/h (0 Bft) 0,00 %
24.06.2015 04:15 9,6 C 89 % 1019,1 hPa 0,0 l/m 0,0 km/h (0 Bft) O 89 0 min 0,000 mm 0,0 UV-I 0 W/m 7,9 C 9,6 C 0,0 km/h (0 Bft) 0,00 %
24.06.2015 04:20 9,6 C 89 % 1019,3 hPa 0,0 l/m 0,0 km/h (0 Bft) S-SW 192 0 min 0,000 mm 0,0 UV-I 0 W/m 7,9 C 9,6 C 0,0 km/h (0 Bft) 0,00 %
24.06.2015 04:25 9,6 C 88 % 1019,3 hPa 0,0 l/m 1,8 km/h (1 Bft) S-SW 201 0 min 0,000 mm 0,0 UV-I 0 W/m 7,7 C 9,6 C 4,0 km/h (1 Bft) 0,00 %
24.06.2015 04:30 9,6 C 88 % 1019,4 hPa 0,0 l/m 0,0 km/h (0 Bft) SW 221 0 min 0,000 mm 0,0 UV-I 0 W/m 7,7 C 9,6 C 0,0 km/h (0 Bft) 0,00 %
24.06.2015 04:35 9,6 C 89 % 1019,6 hPa 0,0 l/m 0,0 km/h (0 Bft) S-SO 157 0 min 0,000 mm 0,0 UV-I 0 W/m 7,9 C 9,6 C 0,0 km/h (0 Bft) 0,00 %
24.06.2015 04:40 9,6 C 89 % 1019,6 hPa 0,0 l/m 0,0 km/h (0 Bft) S 173 0 min 0,000 mm 0,0 UV-I 0 W/m 7,9 C 9,6 C 0,0 km/h (0 Bft) 0,00 %
24.06.2015 04:45 9,6 C 88 % 1019,8 hPa 0,0 l/m 0,4 km/h (0 Bft) O-NO 78 0 min 0,000 mm 0,0 UV-I 0 W/m 7,7 C 9,6 C 4,0 km/h (1 Bft) 0,00 %
24.06.2015 04:50 9,7 C 88 % 1019,5 hPa 0,0 l/m 1,8 km/h (1 Bft) SW 223 0 min 0,000 mm 0,0 UV-I 0 W/m 7,8 C 9,7 C 4,0 km/h (1 Bft) 0,00 %
24.06.2015 04:55 9,7 C 88 % 1019,5 hPa 0,0 l/m 0,0 km/h (0 Bft) NO 37 0 min 0,000 mm 0,0 UV-I 0 W/m 7,8 C 9,7 C 0,0 km/h (0 Bft) 0,00 %
24.06.2015 05:00 9,6 C 87 % 1019,6 hPa 0,0 l/m 0,4 km/h (0 Bft) SO 145 0 min 0,000 mm 0,0 UV-I 0 W/m 7,5 C 9,6 C 4,0 km/h (1 Bft) 0,00 %
24.06.2015 05:05 9,5 C 87 % 1019,9 hPa 0,0 l/m 4,7 km/h (1 Bft) O-SO 115 0 min 0,000 mm 0,0 UV-I 0 W/m 7,4 C 9,5 C 7,9 km/h (2 Bft) 0,00 %
24.06.2015 05:10 9,5 C 87 % 1020,0 hPa 0,0 l/m 0,4 km/h (0 Bft) S 187 0 min 0,000 mm 0,0 UV-I 0 W/m 7,4 C 9,5 C 4,0 km/h (1 Bft) 0,00 %
24.06.2015 05:15 9,4 C 87 % 1020,0 hPa 0,0 l/m 0,4 km/h (0 Bft) S-SW 198 0 min 0,000 mm 0,0 UV-I 3 W/m 7,3 C 9,4 C 4,0 km/h (1 Bft) 0,00 %
24.06.2015 05:20 9,3 C 87 % 1020,0 hPa 0,0 l/m 1,8 km/h (1 Bft) W-SW 251 0 min 0,000 mm 0,0 UV-I 7 W/m 7,2 C 9,3 C 4,0 km/h (1 Bft) 0,00 %
24.06.2015 05:25 9,2 C 87 % 1020,1 hPa 0,0 l/m 0,0 km/h (0 Bft) S-SW 198 0 min 0,000 mm 0,0 UV-I 17 W/m 7,2 C 9,2 C 0,0 km/h (0 Bft) 0,00 %
24.06.2015 05:30 9,2 C 87 % 1020,2 hPa 0,0 l/m 0,0 km/h (0 Bft) O 90 0 min 0,000 mm 0,0 UV-I 21 W/m 7,2 C 9,2 C 0,0 km/h (0 Bft) 0,00 %
24.06.2015 05:35 9,2 C 87 % 1020,1 hPa 0,0 l/m 0,4 km/h (0 Bft) O 96 0 min 0,000 mm 0,0 UV-I 27 W/m 7,2 C 9,2 C 4,0 km/h (1 Bft) 0,00 %
24.06.2015 05:40 9,2 C 87 % 1020,2 hPa 0,0 l/m 1,4 km/h (1 Bft) W-SW 252 0 min 0,000 mm 0,0 UV-I 38 W/m 7,2 C 9,2 C 4,0 km/h (1 Bft) 0,00 %
24.06.2015 05:45 9,2 C 87 % 1020,3 hPa 0,0 l/m 0,4 km/h (0 Bft) SW 214 5 min 0,000 mm 0,0 UV-I 60 W/m 7,2 C 9,2 C 4,0 km/h (1 Bft) 0,00 %
24.06.2015 05:50 9,3 C 87 % 1020,3 hPa 0,0 l/m 0,0 km/h (0 Bft) S-SO 160 5 min 0,000 mm 0,0 UV-I 60 W/m 7,2 C 9,3 C 0,0 km/h (0 Bft) 0,00 %
24.06.2015 05:55 9,4 C 86 % 1020,4 hPa 0,0 l/m 0,4 km/h (0 Bft) W-NW 293 5 min 0,000 mm 0,0 UV-I 94 W/m 7,2 C 9,4 C 4,0 km/h (1 Bft) 0,00 %
24.06.2015 06:00 9,5 C 86 % 1020,4 hPa 0,0 l/m 0,0 km/h (0 Bft) O-SO 120 5 min 0,000 mm 0,0 UV-I 75 W/m 7,3 C 9,5 C 0,0 km/h (0 Bft) 0,00 %
24.06.2015 06:05 9,6 C 86 % 1020,4 hPa 0,0 l/m 0,0 km/h (0 Bft) S 186 5 min 0,000 mm 0,0 UV-I 89 W/m 7,4 C 9,6 C 0,0 km/h (0 Bft) 0,00 %
24.06.2015 06:10 9,7 C 86 % 1020,4 hPa 0,0 l/m 0,0 km/h (0 Bft) O 97 5 min 0,000 mm 0,0 UV-I 88 W/m 7,5 C 9,7 C 0,0 km/h (0 Bft) 0,00 %
24.06.2015 06:15 9,8 C 84 % 1020,3 hPa 0,0 l/m 0,0 km/h (0 Bft) SW 217 5 min 0,000 mm 0,0 UV-I 90 W/m 7,2 C 9,8 C 0,0 km/h (0 Bft) 0,00 %
24.06.2015 06:20 9,9 C 84 % 1020,3 hPa 0,0 l/m 2,2 km/h (1 Bft) W-SW 254 0 min 0,000 mm 0,0 UV-I 79 W/m 7,3 C 9,9 C 7,9 km/h (2 Bft) 0,00 %
24.06.2015 06:25 10,0 C 83 % 1020,6 hPa 0,0 l/m 0,0 km/h (0 Bft) S 182 0 min 0,000 mm 0,0 UV-I 67 W/m 7,2 C 10,0 C 0,0 km/h (0 Bft) 0,00 %
24.06.2015 06:30 10,1 C 84 % 1020,5 hPa 0,0 l/m 0,0 km/h (0 Bft) S-SO 160 0 min 0,000 mm 0,0 UV-I 82 W/m 7,5 C 10,1 C 0,0 km/h (0 Bft) 0,00 %
24.06.2015 06:35 10,1 C 83 % 1020,6 hPa 0,0 l/m 2,2 km/h (1 Bft) W-SW 256 0 min 0,000 mm 0,0 UV-I 84 W/m 7,3 C 10,1 C 4,0 km/h (1 Bft) 0,00 %
24.06.2015 06:40 10,3 C 83 % 1020,5 hPa 0,0 l/m 0,0 km/h (0 Bft) S-SW 200 0 min 0,000 mm 0,0 UV-I 58 W/m 7,5 C 10,3 C 0,0 km/h (0 Bft) 0,00 %
24.06.2015 06:45 10,4 C 83 % 1020,6 hPa 0,0 l/m 0,4 km/h (0 Bft) N 1 0 min 0,000 mm 1,0 UV-I 69 W/m 7,6 C 10,4 C 4,0 km/h (1 Bft) 0,00 %
24.06.2015 06:50 10,3 C 83 % 1020,7 hPa 0,0 l/m 0,4 km/h (0 Bft) SW 224 0 min 0,000 mm 1,0 UV-I 81 W/m 7,5 C 10,3 C 4,0 km/h (1 Bft) 0,00 %
24.06.2015 06:55 10,3 C 83 % 1020,7 hPa 0,0 l/m 1,4 km/h (1 Bft) SW 217 0 min 0,000 mm 1,0 UV-I 99 W/m 7,5 C 10,3 C 4,0 km/h (1 Bft) 0,00 %
24.06.2015 07:00 10,4 C 83 % 1021,0 hPa 0,0 l/m 0,4 km/h (0 Bft) S 188 0 min 0,000 mm 1,0 UV-I 123 W/m 7,6 C 10,4 C 4,0 km/h (1 Bft) 0,00 %
24.06.2015 07:05 10,5 C 83 % 1021,0 hPa 0,0 l/m 0,0 km/h (0 Bft) S 172 5 min 0,000 mm 1,0 UV-I 186 W/m 7,7 C 10,5 C 0,0 km/h (0 Bft) 0,00 %
24.06.2015 07:10 10,8 C 81 % 1021,0 hPa 0,0 l/m 0,0 km/h (0 Bft) SO 145 5 min 0,000 mm 1,0 UV-I 166 W/m 7,7 C 10,8 C 0,0 km/h (0 Bft) 0,00 %
24.06.2015 07:15 11,3 C 80 % 1020,9 hPa 0,0 l/m 0,0 km/h (0 Bft) W-SW 255 0 min 0,000 mm 1,0 UV-I 147 W/m 8,0 C 11,3 C 0,0 km/h (0 Bft) 0,00 %
24.06.2015 07:20 11,5 C 79 % 1021,0 hPa 0,0 l/m 0,0 km/h (0 Bft) O-SO 112 0 min 0,000 mm 1,0 UV-I 156 W/m 8,0 C 11,5 C 0,0 km/h (0 Bft) 0,00 %
24.06.2015 07:25 11,6 C 79 % 1021,1 hPa 0,0 l/m 0,4 km/h (0 Bft) W-SW 256 0 min 0,000 mm 1,0 UV-I 124 W/m 8,1 C 11,6 C 4,0 km/h (1 Bft) 0,00 %
24.06.2015 07:30 11,7 C 79 % 1021,1 hPa 0,0 l/m 0,4 km/h (0 Bft) W-SW 256 0 min 0,000 mm 1,0 UV-I 120 W/m 8,2 C 11,7 C 4,0 km/h (1 Bft) 0,00 %
24.06.2015 07:35 11,6 C 78 % 1021,0 hPa 0,0 l/m 0,0 km/h (0 Bft) S 178 0 min 0,000 mm 1,0 UV-I 81 W/m 7,9 C 11,6 C 0,0 km/h (0 Bft) 0,00 %
24.06.2015 07:40 11,6 C 79 % 1021,0 hPa 0,0 l/m 0,0 km/h (0 Bft) S-SO 154 0 min 0,000 mm 0,0 UV-I 75 W/m 8,1 C 11,6 C 0,0 km/h (0 Bft) 0,00 %
24.06.2015 07:45 11,5 C 79 % 1021,1 hPa 0,0 l/m 0,0 km/h (0 Bft) S 173 0 min 0,000 mm 1,0 UV-I 75 W/m 8,0 C 11,5 C 0,0 km/h (0 Bft) 0,00 %
24.06.2015 07:50 11,4 C 79 % 1021,0 hPa 0,0 l/m 0,0 km/h (0 Bft) SO 125 0 min 0,000 mm 1,0 UV-I 90 W/m 7,9 C 11,4 C 0,0 km/h (0 Bft) 0,00 %
24.06.2015 07:55 11,4 C 79 % 1021,3 hPa 0,0 l/m 1,8 km/h (1 Bft) SW 229 0 min 0,000 mm 0,0 UV-I 76 W/m 7,9 C 11,4 C 4,0 km/h (1 Bft) 0,00 %
24.06.2015 08:00 11,4 C 79 % 1021,3 hPa 0,0 l/m 3,2 km/h (1 Bft) S-SW 211 0 min 0,000 mm 1,0 UV-I 85 W/m 7,9 C 11,4 C 4,0 km/h (1 Bft) 0,00 %
24.06.2015 08:05 11,4 C 79 % 1021,5 hPa 0,0 l/m 0,0 km/h (0 Bft) S 175 0 min 0,000 mm 1,0 UV-I 98 W/m 7,9 C 11,4 C 0,0 km/h (0 Bft) 0,00 %
24.06.2015 08:10 11,4 C 79 % 1021,5 hPa 0,0 l/m 0,4 km/h (0 Bft) SO 142 0 min 0,000 mm 1,0 UV-I 158 W/m 7,9 C 11,4 C 4,0 km/h (1 Bft) 0,00 %
24.06.2015 08:15 11,5 C 79 % 1021,3 hPa 0,0 l/m 0,0 km/h (0 Bft) SO 146 0 min 0,000 mm 1,0 UV-I 111 W/m 8,0 C 11,5 C 0,0 km/h (0 Bft) 0,00 %
24.06.2015 08:20 11,6 C 79 % 1021,4 hPa 0,0 l/m 0,7 km/h (0 Bft) W 260 0 min 0,000 mm 0,0 UV-I 71 W/m 8,1 C 11,6 C 4,0 km/h (1 Bft) 0,00 %
24.06.2015 08:25 11,7 C 79 % 1021,4 hPa 0,0 l/m 0,0 km/h (0 Bft) SW 223 0 min 0,000 mm 0,0 UV-I 72 W/m 8,2 C 11,7 C 0,0 km/h (0 Bft) 0,00 %
24.06.2015 08:30 11,7 C 79 % 1021,4 hPa 0,0 l/m 0,4 km/h (0 Bft) SW 218 0 min 0,000 mm 1,0 UV-I 70 W/m 8,2 C 11,7 C 4,0 km/h (1 Bft) 0,00 %
24.06.2015 08:35 11,7 C 79 % 1021,4 hPa 0,0 l/m 0,4 km/h (0 Bft) S 172 0 min 0,000 mm 0,0 UV-I 80 W/m 8,2 C 11,7 C 4,0 km/h (1 Bft) 0,00 %
24.06.2015 08:40 11,6 C 79 % 1021,3 hPa 0,0 l/m 0,0 km/h (0 Bft) SO 141 0 min 0,000 mm 1,0 UV-I 152 W/m 8,1 C 11,6 C 0,0 km/h (0 Bft) 0,00 %
24.06.2015 08:45 11,6 C 78 % 1021,6 hPa 0,0 l/m 3,2 km/h (1 Bft) W-SW 251 0 min 0,000 mm 1,0 UV-I 228 W/m 7,9 C 11,6 C 7,9 km/h (2 Bft) 0,00 %
24.06.2015 08:50 12,0 C 77 % 1021,5 hPa 0,0 l/m 4,0 km/h (1 Bft) W-SW 255 0 min 0,000 mm 1,0 UV-I 273 W/m 8,1 C 12,0 C 7,9 km/h (2 Bft) 0,00 %
24.06.2015 08:55 12,4 C 75 % 1021,4 hPa 0,0 l/m 0,4 km/h (0 Bft) W-SW 256 0 min 0,000 mm 2,0 UV-I 304 W/m 8,1 C 12,4 C 4,0 km/h (1 Bft) 0,00 %
24.06.2015 09:00 12,9 C 73 % 1021,3 hPa 0,0 l/m 0,0 km/h (0 Bft) S 172 0 min 0,000 mm 2,0 UV-I 286 W/m 8,2 C 12,9 C 0,0 km/h (0 Bft) 0,00 %
24.06.2015 09:05 13,2 C 72 % 1021,3 hPa 0,0 l/m 6,5 km/h (2 Bft) W-SW 256 0 min 0,000 mm 2,0 UV-I 249 W/m 8,3 C 13,2 C 7,9 km/h (2 Bft) 0,00 %
24.06.2015 09:10 13,4 C 71 % 1021,4 hPa 0,0 l/m 7,2 km/h (2 Bft) SW 229 0 min 0,000 mm 2,0 UV-I 293 W/m 8,3 C 12,9 C 11,9 km/h (2 Bft) 0,00 %
24.06.2015 09:15 13,5 C 71 % 1021,5 hPa 0,0 l/m 2,2 km/h (1 Bft) S 180 0 min 0,000 mm 2,0 UV-I 232 W/m 8,3 C 13,5 C 4,0 km/h (1 Bft) 0,00 %
24.06.2015 09:20 13,5 C 72 % 1021,4 hPa 0,0 l/m 0,0 km/h (0 Bft) S 187 0 min 0,000 mm 2,0 UV-I 253 W/m 8,6 C 13,5 C 0,0 km/h (0 Bft) 0,00 %
24.06.2015 09:25 13,9 C 71 % 1021,5 hPa 0,0 l/m 1,8 km/h (1 Bft) W-SW 256 0 min 0,000 mm 1,0 UV-I 184 W/m 8,7 C 13,9 C 4,0 km/h (1 Bft) 0,00 %
24.06.2015 09:30 14,1 C 70 % 1021,4 hPa 0,0 l/m 1,4 km/h (1 Bft) W-SW 248 0 min 0,000 mm 1,0 UV-I 123 W/m 8,7 C 14,1 C 4,0 km/h (1 Bft) 0,00 %
24.06.2015 09:35 13,8 C 71 % 1021,5 hPa 0,0 l/m 0,0 km/h (0 Bft) S 172 0 min 0,000 mm 0,0 UV-I 72 W/m 8,6 C 13,8 C 0,0 km/h (0 Bft) 0,00 %
24.06.2015 09:40 13,3 C 75 % 1021,7 hPa 0,0 l/m 8,3 km/h (2 Bft) W-NW 282 0 min 0,000 mm 1,0 UV-I 139 W/m 9,0 C 12,1 C 15,8 km/h (3 Bft) 0,00 %
24.06.2015 09:45 12,7 C 78 % 1021,8 hPa 0,0 l/m 6,5 km/h (2 Bft) W-SW 245 0 min 0,000 mm 1,0 UV-I 187 W/m 9,0 C 12,7 C 7,9 km/h (2 Bft) 0,00 %
24.06.2015 09:50 12,4 C 79 % 1021,9 hPa 0,0 l/m 0,0 km/h (0 Bft) S-SW 198 0 min 0,000 mm 2,0 UV-I 292 W/m 8,9 C 12,4 C 0,0 km/h (0 Bft) 0,00 %
24.06.2015 09:55 12,6 C 76 % 1021,9 hPa 0,0 l/m 4,7 km/h (1 Bft) W-SW 256 0 min 0,000 mm 2,0 UV-I 342 W/m 8,5 C 12,6 C 7,9 km/h (2 Bft) 0,00 %
24.06.2015 10:00 13,1 C 74 % 1021,7 hPa 0,0 l/m 0,0 km/h (0 Bft) O 95 0 min 0,000 mm 2,0 UV-I 338 W/m 8,6 C 13,1 C 0,0 km/h (0 Bft) 0,00 %
24.06.2015 10:05 13,6 C 71 % 1021,7 hPa 0,0 l/m 2,9 km/h (1 Bft) W-SW 252 0 min 0,000 mm 2,0 UV-I 206 W/m 8,4 C 13,6 C 4,0 km/h (1 Bft) 0,00 %
24.06.2015 10:10 13,9 C 70 % 1021,7 hPa 0,0 l/m 0,0 km/h (0 Bft) S 173 0 min 0,000 mm 1,0 UV-I 296 W/m 8,5 C 13,9 C 0,0 km/h (0 Bft) 0,00 %
24.06.2015 10:15 14,1 C 71 % 1021,7 hPa 0,0 l/m 1,4 km/h (1 Bft) W-SW 255 0 min 0,000 mm 2,0 UV-I 282 W/m 8,9 C 14,1 C 4,0 km/h (1 Bft) 0,00 %
24.06.2015 10:20 14,1 C 69 % 1021,8 hPa 0,0 l/m 0,4 km/h (0 Bft) SW 222 0 min 0,000 mm 2,0 UV-I 267 W/m 8,5 C 14,1 C 4,0 km/h (1 Bft) 0,00 %
24.06.2015 10:25 14,1 C 69 % 1021,8 hPa 0,0 l/m 0,0 km/h (0 Bft) W-SW 256 0 min 0,000 mm 2,0 UV-I 284 W/m 8,5 C 14,1 C 0,0 km/h (0 Bft) 0,00 %
24.06.2015 10:30 14,1 C 69 % 1021,7 hPa 0,0 l/m 1,4 km/h (1 Bft) SW 222 0 min 0,000 mm 2,0 UV-I 216 W/m 8,5 C 14,1 C 4,0 km/h (1 Bft) 0,00 %
24.06.2015 10:35 14,2 C 69 % 1021,6 hPa 0,0 l/m 6,5 km/h (2 Bft) W-SW 256 0 min 0,000 mm 2,0 UV-I 241 W/m 8,6 C 14,2 C 7,9 km/h (2 Bft) 0,00 %
24.06.2015 10:40 14,2 C 67 % 1021,6 hPa 0,0 l/m 2,9 km/h (1 Bft) W-SW 246 0 min 0,000 mm 2,0 UV-I 262 W/m 8,2 C 14,2 C 4,0 km/h (1 Bft) 0,00 %
24.06.2015 10:45 14,3 C 67 % 1021,8 hPa 0,0 l/m 0,0 km/h (0 Bft) S 175 0 min 0,000 mm 1,0 UV-I 260 W/m 8,3 C 14,3 C 0,0 km/h (0 Bft) 0,00 %
24.06.2015 10:50 14,5 C 65 % 1021,8 hPa 0,0 l/m 0,0 km/h (0 Bft) S 177 0 min 0,000 mm 2,0 UV-I 312 W/m 8,0 C 14,5 C 0,0 km/h (0 Bft) 0,00 %
24.06.2015 10:55 14,7 C 63 % 1021,8 hPa 0,0 l/m 1,4 km/h (1 Bft) S-SW 203 0 min 0,000 mm 2,0 UV-I 361 W/m 7,7 C 14,7 C 4,0 km/h (1 Bft) 0,00 %
24.06.2015 11:00 14,9 C 63 % 1021,8 hPa 0,0 l/m 0,0 km/h (0 Bft) SW 214 0 min 0,000 mm 2,0 UV-I 289 W/m 7,9 C 14,9 C 0,0 km/h (0 Bft) 0,00 %
24.06.2015 11:05 15,2 C 62 % 1021,7 hPa 0,0 l/m 0,0 km/h (0 Bft) SW 231 0 min 0,000 mm 2,0 UV-I 234 W/m 8,0 C 15,2 C 0,0 km/h (0 Bft) 0,00 %
24.06.2015 11:10 15,1 C 65 % 1021,6 hPa 0,0 l/m 0,0 km/h (0 Bft) SO 131 0 min 0,000 mm 1,0 UV-I 273 W/m 8,6 C 15,1 C 0,0 km/h (0 Bft) 0,00 %
24.06.2015 11:15 14,8 C 64 % 1022,0 hPa 0,0 l/m 0,4 km/h (0 Bft) O-SO 108 0 min 0,000 mm 2,0 UV-I 328 W/m 8,1 C 14,8 C 4,0 km/h (1 Bft) 0,00 %
24.06.2015 11:20 14,9 C 65 % 1021,8 hPa 0,0 l/m 4,7 km/h (1 Bft) W-SW 255 0 min 0,000 mm 2,0 UV-I 312 W/m 8,4 C 14,9 C 11,9 km/h (2 Bft) 0,00 %
24.06.2015 11:25 15,0 C 64 % 1021,7 hPa 0,0 l/m 0,4 km/h (0 Bft) W-SW 256 0 min 0,000 mm 2,0 UV-I 320 W/m 8,2 C 15,0 C 4,0 km/h (1 Bft) 0,00 %
24.06.2015 11:30 15,1 C 65 % 1021,7 hPa 0,0 l/m 0,0 km/h (0 Bft) SO 142 0 min 0,000 mm 2,0 UV-I 356 W/m 8,6 C 15,1 C 0,0 km/h (0 Bft) 0,00 %
24.06.2015 11:35 15,5 C 62 % 1021,6 hPa 0,0 l/m 0,0 km/h (0 Bft) O-SO 115 5 min 0,000 mm 2,0 UV-I 611 W/m 8,3 C 15,5 C 0,0 km/h (0 Bft) 0,00 %
24.06.2015 11:40 15,9 C 61 % 1021,8 hPa 0,0 l/m 3,2 km/h (1 Bft) NW 304 5 min 0,000 mm 4,0 UV-I 786 W/m 8,4 C 15,9 C 4,0 km/h (1 Bft) 0,00 %
24.06.2015 11:45 16,3 C 58 % 1021,6 hPa 0,0 l/m 2,9 km/h (1 Bft) W-NW 295 0 min 0,000 mm 4,0 UV-I 344 W/m 8,0 C 16,3 C 4,0 km/h (1 Bft) 0,00 %
24.06.2015 11:50 16,6 C 58 % 1021,6 hPa 0,0 l/m 4,0 km/h (1 Bft) N-NO 20 0 min 0,000 mm 2,0 UV-I 374 W/m 8,3 C 16,6 C 7,9 km/h (2 Bft) 0,00 %
24.06.2015 11:55 16,4 C 58 % 1021,8 hPa 0,0 l/m 0,4 km/h (0 Bft) S 190 0 min 0,000 mm 2,0 UV-I 418 W/m 8,1 C 16,4 C 4,0 km/h (1 Bft) 0,00 %
24.06.2015 12:00 16,2 C 58 % 1021,7 hPa 0,0 l/m 0,0 km/h (0 Bft) O-NO 72 0 min 0,000 mm 2,0 UV-I 459 W/m 7,9 C 16,2 C 0,0 km/h (0 Bft) 0,00 %
24.06.2015 12:05 16,2 C 59 % 1021,8 hPa 0,0 l/m 0,0 km/h (0 Bft) S-SW 194 0 min 0,000 mm 3,0 UV-I 412 W/m 8,2 C 16,2 C 0,0 km/h (0 Bft) 0,00 %
24.06.2015 12:10 16,2 C 60 % 1021,8 hPa 0,0 l/m 1,8 km/h (1 Bft) NO 48 5 min 0,000 mm 2,0 UV-I 862 W/m 8,4 C 16,2 C 4,0 km/h (1 Bft) 0,00 %
24.06.2015 12:15 16,6 C 61 % 1021,6 hPa 0,0 l/m 0,0 km/h (0 Bft) S-SW 193 0 min 0,000 mm 3,0 UV-I 440 W/m 9,0 C 16,6 C 0,0 km/h (0 Bft) 0,00 %
24.06.2015 12:20 17,1 C 57 % 1021,6 hPa 0,0 l/m 0,0 km/h (0 Bft) S 173 0 min 0,000 mm 3,0 UV-I 280 W/m 8,5 C 17,1 C 0,0 km/h (0 Bft) 0,00 %
24.06.2015 12:25 17,5 C 55 % 1021,8 hPa 0,0 l/m 0,0 km/h (0 Bft) NO 56 0 min 0,000 mm 1,0 UV-I 306 W/m 8,4 C 17,5 C 0,0 km/h (0 Bft) 0,00 %
24.06.2015 12:30 17,5 C 56 % 1021,5 hPa 0,0 l/m 1,8 km/h (1 Bft) S-SW 204 0 min 0,000 mm 2,0 UV-I 359 W/m 8,6 C 17,5 C 4,0 km/h (1 Bft) 0,00 %
24.06.2015 12:35 17,2 C 57 % 1021,6 hPa 0,0 l/m 0,0 km/h (0 Bft) S 182 0 min 0,000 mm 2,0 UV-I 463 W/m 8,6 C 17,2 C 0,0 km/h (0 Bft) 0,00 %
24.06.2015 12:40 16,9 C 57 % 1021,6 hPa 0,0 l/m 5,8 km/h (2 Bft) W-NW 286 5 min 0,000 mm 3,0 UV-I 954 W/m 8,3 C 16,9 C 7,9 km/h (2 Bft) 0,00 %
24.06.2015 12:45 17,1 C 56 % 1021,5 hPa 0,0 l/m 0,4 km/h (0 Bft) W-NW 295 5 min 0,000 mm 7,0 UV-I 970 W/m 8,3 C 17,1 C 4,0 km/h (1 Bft) 0,00 %
24.06.2015 12:50 17,5 C 51 % 1021,3 hPa 0,0 l/m 0,4 km/h (0 Bft) W-NW 292 5 min 0,000 mm 7,0 UV-I 1050 W/m 7,3 C 17,5 C 4,0 km/h (1 Bft) 0,00 %
24.06.2015 12:55 18,1 C 50 % 1021,2 hPa 0,0 l/m 0,0 km/h (0 Bft) S-SW 192 0 min 0,000 mm 5,0 UV-I 350 W/m 7,5 C 18,1 C 0,0 km/h (0 Bft) 0,00 %
24.06.2015 13:00 18,7 C 50 % 1021,2 hPa 0,0 l/m 8,3 km/h (2 Bft) W-SW 243 0 min 0,000 mm 2,0 UV-I 229 W/m 8,1 C 17,9 C 11,9 km/h (2 Bft) 0,00 %
24.06.2015 13:05 18,6 C 52 % 1021,3 hPa 0,0 l/m 0,0 km/h (0 Bft) S-SW 209 0 min 0,000 mm 1,0 UV-I 162 W/m 8,5 C 18,6 C 0,0 km/h (0 Bft) 0,00 %
24.06.2015 13:10 17,8 C 53 % 1021,3 hPa 0,0 l/m 0,7 km/h (0 Bft) SW 218 0 min 0,000 mm 1,0 UV-I 125 W/m 8,1 C 17,8 C 4,0 km/h (1 Bft) 0,00 %
24.06.2015 13:15 17,0 C 56 % 1021,4 hPa 0,0 l/m 0,0 km/h (0 Bft) S 185 0 min 0,000 mm 1,0 UV-I 118 W/m 8,2 C 17,0 C 0,0 km/h (0 Bft) 0,00 %
24.06.2015 13:20 16,5 C 57 % 1021,6 hPa 0,0 l/m 7,9 km/h (2 Bft) W 274 0 min 0,000 mm 1,0 UV-I 178 W/m 8,0 C 15,7 C 11,9 km/h (2 Bft) 0,00 %
24.06.2015 13:25 16,0 C 60 % 1021,7 hPa 0,0 l/m 5,4 km/h (1 Bft) SW 222 0 min 0,000 mm 1,0 UV-I 232 W/m 8,2 C 16,0 C 7,9 km/h (2 Bft) 0,00 %
24.06.2015 13:30 15,6 C 60 % 1021,7 hPa 0,0 l/m 1,4 km/h (1 Bft) S 189 0 min 0,000 mm 1,0 UV-I 292 W/m 7,9 C 15,6 C 4,0 km/h (1 Bft) 0,00 %
24.06.2015 13:35 15,7 C 59 % 1021,8 hPa 0,0 l/m 1,4 km/h (1 Bft) W-SW 256 0 min 0,000 mm 2,0 UV-I 374 W/m 7,7 C 15,7 C 4,0 km/h (1 Bft) 0,00 %
24.06.2015 13:40 16,2 C 58 % 1021,7 hPa 0,0 l/m 0,7 km/h (0 Bft) W-SW 255 0 min 0,000 mm 2,0 UV-I 420 W/m 7,9 C 16,2 C 4,0 km/h (1 Bft) 0,00 %
24.06.2015 13:45 16,6 C 57 % 1021,4 hPa 0,0 l/m 0,4 km/h (0 Bft) W 279 0 min 0,000 mm 3,0 UV-I 457 W/m 8,0 C 16,6 C 4,0 km/h (1 Bft) 0,00 %
24.06.2015 13:50 16,9 C 57 % 1021,4 hPa 0,0 l/m 0,0 km/h (0 Bft) SW 231 5 min 0,000 mm 4,0 UV-I 952 W/m 8,3 C 16,9 C 0,0 km/h (0 Bft) 0,00 %
24.06.2015 13:55 17,0 C 58 % 1021,3 hPa 0,0 l/m 0,4 km/h (0 Bft) SW 226 5 min 0,000 mm 6,0 UV-I 838 W/m 8,7 C 17,0 C 4,0 km/h (1 Bft) 0,00 %
24.06.2015 14:00 17,5 C 55 % 1021,1 hPa 0,0 l/m 0,7 km/h (0 Bft) S 188 5 min 0,000 mm 4,0 UV-I 939 W/m 8,4 C 17,5 C 4,0 km/h (1 Bft) 0,00 %
24.06.2015 14:05 17,8 C 54 % 1021,2 hPa 0,0 l/m 0,4 km/h (0 Bft) O-SO 118 5 min 0,000 mm 5,0 UV-I 601 W/m 8,4 C 17,8 C 4,0 km/h (1 Bft) 0,00 %
24.06.2015 14:10 18,2 C 53 % 1021,1 hPa 0,0 l/m 0,0 km/h (0 Bft) S-SO 154 5 min 0,000 mm 5,0 UV-I 528 W/m 8,5 C 18,2 C 0,0 km/h (0 Bft) 0,00 %
24.06.2015 14:15 18,4 C 54 % 1021,1 hPa 0,0 l/m 6,5 km/h (2 Bft) W-SW 256 0 min 0,000 mm 3,0 UV-I 378 W/m 8,9 C 18,4 C 7,9 km/h (2 Bft) 0,00 %
24.06.2015 14:20 18,1 C 52 % 1021,0 hPa 0,0 l/m 1,8 km/h (1 Bft) SO 143 0 min 0,000 mm 2,0 UV-I 413 W/m 8,1 C 18,1 C 4,0 km/h (1 Bft) 0,00 %
24.06.2015 14:25 17,8 C 54 % 1021,2 hPa 0,0 l/m 2,9 km/h (1 Bft) SW 231 5 min 0,000 mm 2,0 UV-I 557 W/m 8,4 C 17,8 C 4,0 km/h (1 Bft) 0,00 %
24.06.2015 14:30 17,8 C 53 % 1021,2 hPa 0,0 l/m 2,9 km/h (1 Bft) SW 215 5 min 0,000 mm 3,0 UV-I 978 W/m 8,1 C 17,8 C 4,0 km/h (1 Bft) 0,00 %
24.06.2015 14:35 17,8 C 52 % 1021,1 hPa 0,0 l/m 3,2 km/h (1 Bft) W-SW 256 5 min 0,000 mm 3,0 UV-I 833 W/m 7,8 C 17,8 C 7,9 km/h (2 Bft) 0,00 %
24.06.2015 14:40 18,1 C 51 % 1021,0 hPa 0,0 l/m 1,4 km/h (1 Bft) N 351 5 min 0,000 mm 3,0 UV-I 982 W/m 7,8 C 18,1 C 4,0 km/h (1 Bft) 0,00 %
24.06.2015 14:45 18,6 C 49 % 1021,0 hPa 0,0 l/m 2,2 km/h (1 Bft) S 184 0 min 0,000 mm 6,0 UV-I 344 W/m 7,7 C 18,6 C 4,0 km/h (1 Bft) 0,00 %
24.06.2015 14:50 19,1 C 47 % 1021,0 hPa 0,0 l/m 3,2 km/h (1 Bft) W-SW 256 0 min 0,000 mm 5,0 UV-I 384 W/m 7,5 C 19,1 C 4,0 km/h (1 Bft) 0,00 %
24.06.2015 14:55 19,2 C 47 % 1021,0 hPa 0,0 l/m 5,4 km/h (1 Bft) SW 215 5 min 0,000 mm 2,0 UV-I 767 W/m 7,6 C 19,2 C 7,9 km/h (2 Bft) 0,00 %
24.06.2015 15:00 18,6 C 51 % 1021,1 hPa 0,0 l/m 2,9 km/h (1 Bft) SW 231 5 min 0,000 mm 3,0 UV-I 560 W/m 8,3 C 18,6 C 4,0 km/h (1 Bft) 0,00 %
24.06.2015 15:05 18,1 C 49 % 1020,9 hPa 0,0 l/m 0,7 km/h (0 Bft) SW 221 5 min 0,000 mm 4,0 UV-I 566 W/m 7,2 C 18,1 C 4,0 km/h (1 Bft) 0,00 %
24.06.2015 15:10 18,3 C 50 % 1020,9 hPa 0,0 l/m 5,8 km/h (2 Bft) W-NW 296 5 min 0,000 mm 2,0 UV-I 1083 W/m 7,7 C 18,3 C 7,9 km/h (2 Bft) 0,00 %
24.06.2015 15:15 18,6 C 49 % 1021,1 hPa 0,0 l/m 1,4 km/h (1 Bft) SW 226 0 min 0,000 mm 5,0 UV-I 385 W/m 7,7 C 18,6 C 4,0 km/h (1 Bft) 0,00 %
24.06.2015 15:20 19,0 C 47 % 1020,9 hPa 0,0 l/m 0,7 km/h (0 Bft) SO 125 5 min 0,000 mm 4,0 UV-I 961 W/m 7,4 C 19,0 C 4,0 km/h (1 Bft) 0,00 %
24.06.2015 15:25 19,6 C 50 % 1020,8 hPa 0,0 l/m 7,9 km/h (2 Bft) W-SW 255 0 min 0,000 mm 3,0 UV-I 270 W/m 8,9 C 19,0 C 11,9 km/h (2 Bft) 0,00 %
24.06.2015 15:30 19,4 C 49 % 1020,8 hPa 0,0 l/m 3,2 km/h (1 Bft) W 267 5 min 0,000 mm 2,0 UV-I 976 W/m 8,4 C 19,4 C 7,9 km/h (2 Bft) 0,00 %
24.06.2015 15:35 18,6 C 51 % 1021,0 hPa 0,0 l/m 0,4 km/h (0 Bft) SO 130 5 min 0,000 mm 1,0 UV-I 488 W/m 8,3 C 18,6 C 4,0 km/h (1 Bft) 0,00 %
24.06.2015 15:40 18,1 C 50 % 1021,0 hPa 0,0 l/m 2,2 km/h (1 Bft) W-SW 256 0 min 0,000 mm 3,0 UV-I 334 W/m 7,5 C 18,1 C 4,0 km/h (1 Bft) 0,00 %
24.06.2015 15:45 18,8 C 46 % 1020,9 hPa 0,0 l/m 5,8 km/h (2 Bft) W 263 0 min 0,000 mm 3,0 UV-I 272 W/m 6,9 C 18,8 C 7,9 km/h (2 Bft) 0,00 %
24.06.2015 15:50 19,6 C 46 % 1020,8 hPa 0,0 l/m 0,0 km/h (0 Bft) S-SO 147 0 min 0,000 mm 2,0 UV-I 272 W/m 7,7 C 19,6 C 0,0 km/h (0 Bft) 0,00 %
24.06.2015 15:55 19,6 C 50 % 1020,9 hPa 0,0 l/m 5,8 km/h (2 Bft) S 183 5 min 0,000 mm 2,0 UV-I 611 W/m 8,9 C 19,6 C 7,9 km/h (2 Bft) 0,00 %
24.06.2015 16:00 19,6 C 50 % 1020,8 hPa 0,0 l/m 5,8 km/h (2 Bft) S 183 5 min 0,000 mm 2,0 UV-I 611 W/m 8,9 C 19,6 C 7,9 km/h (2 Bft) 0,00 %
24.06.2015 16:05 19,8 C 50 % 1020,9 hPa 0,0 l/m 0,0 km/h (0 Bft) S 183 5 min 0,000 mm 2,0 UV-I 650 W/m 9,1 C 19,8 C 0,0 km/h (0 Bft) 0,00 %
24.06.2015 16:10 19,7 C 50 % 1020,9 hPa 0,0 l/m 0,0 km/h (0 Bft) S 183 5 min 0,000 mm 2,0 UV-I 660 W/m 9,0 C 19,7 C 0,0 km/h (0 Bft) 0,00 %
24.06.2015 16:15 19,6 C 50 % 1020,7 hPa 0,0 l/m 0,0 km/h (0 Bft) S 183 5 min 0,000 mm 2,0 UV-I 700 W/m 8,9 C 19,6 C 0,0 km/h (0 Bft) 0,00 %
24.06.2015 16:20 19,6 C 50 % 1020,9 hPa 0,0 l/m 0,0 km/h (0 Bft) S 183 5 min 0,000 mm 2,0 UV-I 650 W/m 8,9 C 19,6 C 0,0 km/h (0 Bft) 0,00 %
24.06.2015 16:25 19,5 C 50 % 1020,9 hPa 0,0 l/m 0,0 km/h (0 Bft) S 183 5 min 0,000 mm 2,0 UV-I 640 W/m 8,8 C 19,5 C 0,0 km/h (0 Bft) 0,00 %
24.06.2015 16:30 19,5 C 50 % 1020,9 hPa 0,0 l/m 0,0 km/h (0 Bft) S 183 5 min 0,000 mm 2,0 UV-I 555 W/m 8,8 C 19,5 C 0,0 km/h (0 Bft) 0,00 %
24.06.2015 16:35 19,5 C 50 % 1020,9 hPa 0,0 l/m 0,0 km/h (0 Bft) S 183 5 min 0,000 mm 2,0 UV-I 444 W/m 8,8 C 19,5 C 0,0 km/h (0 Bft) 0,00 %
24.06.2015 16:40 19,5 C 50 % 1020,8 hPa 0,0 l/m 0,0 km/h (0 Bft) S 183 5 min 0,000 mm 2,0 UV-I 678 W/m 8,8 C 19,5 C 0,0 km/h (0 Bft) 0,00 %
24.06.2015 16:45 19,5 C 50 % 1020,8 hPa 0,0 l/m 0,0 km/h (0 Bft) S 183 5 min 0,000 mm 2,0 UV-I 700 W/m 8,8 C 19,5 C 0,0 km/h (0 Bft) 0,00 %
24.06.2015 16:50 18,9 C 51 % 1020,8 hPa 0,0 l/m 0,7 km/h (0 Bft) N-NO 33 5 min 0,000 mm 3,0 UV-I 555 W/m 8,5 C 18,9 C 4,0 km/h (1 Bft) 0,00 %
24.06.2015 16:55 18,9 C 47 % 1020,9 hPa 0,0 l/m 4,7 km/h (1 Bft) N 353 5 min 0,000 mm 3,0 UV-I 555 W/m 7,3 C 18,9 C 7,9 km/h (2 Bft) 0,00 %
24.06.2015 17:00 18,9 C 46 % 1020,9 hPa 0,0 l/m 4,7 km/h (1 Bft) W 270 5 min 0,000 mm 3,0 UV-I 942 W/m 7,0 C 18,9 C 7,9 km/h (2 Bft) 0,00 %
24.06.2015 17:05 19,0 C 47 % 1020,9 hPa 0,0 l/m 1,8 km/h (1 Bft) O-SO 110 5 min 0,000 mm 2,0 UV-I 938 W/m 7,4 C 19,0 C 4,0 km/h (1 Bft) 0,00 %
24.06.2015 17:10 19,0 C 50 % 1020,8 hPa 0,0 l/m 0,4 km/h (0 Bft) W-NW 284 5 min 0,000 mm 2,0 UV-I 920 W/m 8,3 C 19,0 C 4,0 km/h (1 Bft) 0,00 %
24.06.2015 17:15 18,9 C 49 % 1020,9 hPa 0,0 l/m 4,7 km/h (1 Bft) W-SW 256 5 min 0,000 mm 2,0 UV-I 917 W/m 7,9 C 18,9 C 7,9 km/h (2 Bft) 0,00 %
24.06.2015 17:20 18,6 C 52 % 1020,9 hPa 0,0 l/m 0,7 km/h (0 Bft) N-NO 24 5 min 0,000 mm 2,0 UV-I 472 W/m 8,5 C 18,6 C 4,0 km/h (1 Bft) 0,00 %
24.06.2015 17:25 18,2 C 52 % 1021,2 hPa 0,0 l/m 0,4 km/h (0 Bft) O 98 5 min 0,000 mm 1,0 UV-I 391 W/m 8,2 C 18,2 C 4,0 km/h (1 Bft) 0,00 %
24.06.2015 17:30 17,9 C 53 % 1021,2 hPa 0,0 l/m 0,0 km/h (0 Bft) W-SW 255 5 min 0,000 mm 2,0 UV-I 344 W/m 8,2 C 17,9 C 0,0 km/h (0 Bft) 0,00 %
24.06.2015 17:35 17,8 C 55 % 1021,2 hPa 0,0 l/m 0,4 km/h (0 Bft) N-NW 342 5 min 0,000 mm 2,0 UV-I 390 W/m 8,6 C 17,8 C 4,0 km/h (1 Bft) 0,00 %
24.06.2015 17:40 17,9 C 51 % 1021,1 hPa 0,0 l/m 0,4 km/h (0 Bft) O 98 5 min 0,000 mm 2,0 UV-I 411 W/m 7,6 C 17,9 C 4,0 km/h (1 Bft) 0,00 %
24.06.2015 17:45 18,1 C 52 % 1021,0 hPa 0,0 l/m 0,0 km/h (0 Bft) N-NO 27 5 min 0,000 mm 2,0 UV-I 405 W/m 8,1 C 18,1 C 0,0 km/h (0 Bft) 0,00 %
24.06.2015 17:50 18,6 C 50 % 1021,0 hPa 0,0 l/m 2,9 km/h (1 Bft) W-NW 282 5 min 0,000 mm 1,0 UV-I 825 W/m 8,0 C 18,6 C 7,9 km/h (2 Bft) 0,00 %
24.06.2015 17:55 19,1 C 48 % 1020,9 hPa 0,0 l/m 0,4 km/h (0 Bft) NO 47 5 min 0,000 mm 1,0 UV-I 802 W/m 7,8 C 19,1 C 4,0 km/h (1 Bft) 0,00 %
24.06.2015 18:00 19,3 C 47 % 1020,8 hPa 0,0 l/m 3,2 km/h (1 Bft) W-SW 255 5 min 0,000 mm 1,0 UV-I 783 W/m 7,7 C 19,3 C 4,0 km/h (1 Bft) 0,00 %
24.06.2015 18:05 19,5 C 47 % 1021,0 hPa 0,0 l/m 2,2 km/h (1 Bft) W 275 5 min 0,000 mm 1,0 UV-I 769 W/m 7,9 C 19,5 C 4,0 km/h (1 Bft) 0,00 %
24.06.2015 18:10 19,6 C 46 % 1020,9 hPa 0,0 l/m 4,7 km/h (1 Bft) W 259 5 min 0,000 mm 1,0 UV-I 744 W/m 7,7 C 19,6 C 7,9 km/h (2 Bft) 0,00 %
24.06.2015 18:15 19,8 C 50 % 1021,0 hPa 0,0 l/m 1,4 km/h (1 Bft) W-SW 256 5 min 0,000 mm 1,0 UV-I 736 W/m 9,1 C 19,8 C 4,0 km/h (1 Bft) 0,00 %
24.06.2015 18:20 20,0 C 43 % 1021,0 hPa 0,0 l/m 0,4 km/h (0 Bft) O-SO 102 5 min 0,000 mm 1,0 UV-I 703 W/m 7,0 C 20,0 C 4,0 km/h (1 Bft) 0,00 %
24.06.2015 18:25 20,0 C 44 % 1021,0 hPa 0,0 l/m 0,4 km/h (0 Bft) NW 309 5 min 0,000 mm 1,0 UV-I 731 W/m 7,4 C 20,0 C 4,0 km/h (1 Bft) 0,00 %
24.06.2015 18:30 19,8 C 42 % 1020,9 hPa 0,0 l/m 2,2 km/h (1 Bft) N 351 5 min 0,000 mm 1,0 UV-I 707 W/m 6,5 C 19,8 C 4,0 km/h (1 Bft) 0,00 %
24.06.2015 18:35 19,8 C 45 % 1021,2 hPa 0,0 l/m 0,0 km/h (0 Bft) NO 52 5 min 0,000 mm 1,0 UV-I 665 W/m 7,5 C 19,8 C 0,0 km/h (0 Bft) 0,00 %
24.06.2015 18:40 19,8 C 42 % 1021,0 hPa 0,0 l/m 0,0 km/h (0 Bft) NW 309 5 min 0,000 mm 1,0 UV-I 675 W/m 6,5 C 19,8 C 0,0 km/h (0 Bft) 0,00 %
24.06.2015 18:45 19,9 C 43 % 1021,1 hPa 0,0 l/m 0,0 km/h (0 Bft) N-NW 331 5 min 0,000 mm 1,0 UV-I 659 W/m 6,9 C 19,9 C 0,0 km/h (0 Bft) 0,00 %
24.06.2015 18:50 20,0 C 46 % 1021,1 hPa 0,0 l/m 3,2 km/h (1 Bft) S 191 5 min 0,000 mm 1,0 UV-I 650 W/m 8,0 C 20,0 C 7,9 km/h (2 Bft) 0,00 %
24.06.2015 18:55 20,1 C 42 % 1021,2 hPa 0,0 l/m 0,4 km/h (0 Bft) S-SW 212 5 min 0,000 mm 1,0 UV-I 643 W/m 6,8 C 20,1 C 4,0 km/h (1 Bft) 0,00 %
24.06.2015 19:00 20,0 C 44 % 1021,2 hPa 0,0 l/m 1,4 km/h (1 Bft) W 261 5 min 0,000 mm 1,0 UV-I 629 W/m 7,4 C 20,0 C 4,0 km/h (1 Bft) 0,00 %
24.06.2015 19:05 19,7 C 47 % 1021,2 hPa 0,0 l/m 0,7 km/h (0 Bft) NO 43 5 min 0,000 mm 1,0 UV-I 613 W/m 8,1 C 19,7 C 4,0 km/h (1 Bft) 0,00 %
24.06.2015 19:10 19,6 C 47 % 1021,4 hPa 0,0 l/m 0,0 km/h (0 Bft) NW 321 5 min 0,000 mm 1,0 UV-I 585 W/m 8,0 C 19,6 C 0,0 km/h (0 Bft) 0,00 %
24.06.2015 19:15 19,6 C 47 % 1021,4 hPa 0,0 l/m 0,0 km/h (0 Bft) W-NW 297 5 min 0,000 mm 1,0 UV-I 561 W/m 8,0 C 19,6 C 0,0 km/h (0 Bft) 0,00 %
24.06.2015 19:20 19,7 C 45 % 1021,2 hPa 0,0 l/m 1,8 km/h (1 Bft) NW 321 5 min 0,000 mm 1,0 UV-I 541 W/m 7,4 C 19,7 C 4,0 km/h (1 Bft) 0,00 %
24.06.2015 19:25 19,6 C 48 % 1021,4 hPa 0,0 l/m 0,0 km/h (0 Bft) N 352 5 min 0,000 mm 1,0 UV-I 518 W/m 8,3 C 19,6 C 0,0 km/h (0 Bft) 0,00 %
24.06.2015 19:30 19,5 C 49 % 1021,3 hPa 0,0 l/m 0,0 km/h (0 Bft) O-NO 65 5 min 0,000 mm 1,0 UV-I 505 W/m 8,5 C 19,5 C 0,0 km/h (0 Bft) 0,00 %
24.06.2015 19:35 19,4 C 49 % 1021,6 hPa 0,0 l/m 0,0 km/h (0 Bft) N-NO 33 5 min 0,000 mm 1,0 UV-I 477 W/m 8,4 C 19,4 C 0,0 km/h (0 Bft) 0,00 %
24.06.2015 19:40 19,4 C 50 % 1021,4 hPa 0,0 l/m 0,0 km/h (0 Bft) NO 44 5 min 0,000 mm 1,0 UV-I 457 W/m 8,7 C 19,4 C 0,0 km/h (0 Bft) 0,00 %
24.06.2015 19:45 19,6 C 50 % 1021,5 hPa 0,0 l/m 0,0 km/h (0 Bft) NW 312 5 min 0,000 mm 1,0 UV-I 436 W/m 8,9 C 19,6 C 0,0 km/h (0 Bft) 0,00 %
24.06.2015 19:50 19,7 C 47 % 1021,4 hPa 0,0 l/m 0,0 km/h (0 Bft) O-NO 58 5 min 0,000 mm 1,0 UV-I 413 W/m 8,1 C 19,7 C 0,0 km/h (0 Bft) 0,00 %
24.06.2015 19:55 19,7 C 47 % 1021,3 hPa 0,0 l/m 0,0 km/h (0 Bft) N-NW 347 5 min 0,000 mm 0,0 UV-I 392 W/m 8,1 C 19,7 C 0,0 km/h (0 Bft) 0,00 %
24.06.2015 20:00 19,7 C 50 % 1021,5 hPa 0,0 l/m 0,0 km/h (0 Bft) N-NW 347 5 min 0,000 mm 0,0 UV-I 360 W/m 9,0 C 19,7 C 0,0 km/h (0 Bft) 0,00 %
24.06.2015 20:05 19,7 C 49 % 1021,3 hPa 0,0 l/m 0,0 km/h (0 Bft) N-NO 26 5 min 0,000 mm 0,0 UV-I 339 W/m 8,7 C 19,7 C 0,0 km/h (0 Bft) 0,00 %
24.06.2015 20:10 19,6 C 49 % 1021,5 hPa 0,0 l/m 0,0 km/h (0 Bft) N 349 5 min 0,000 mm 0,0 UV-I 314 W/m 8,6 C 19,6 C 0,0 km/h (0 Bft) 0,00 %
24.06.2015 20:15 19,5 C 47 % 1021,5 hPa 0,0 l/m 0,0 km/h (0 Bft) N-NW 331 5 min 0,000 mm 0,0 UV-I 290 W/m 7,9 C 19,5 C 0,0 km/h (0 Bft) 0,00 %
24.06.2015 20:20 19,4 C 48 % 1021,6 hPa 0,0 l/m 0,0 km/h (0 Bft) N-NW 340 5 min 0,000 mm 0,0 UV-I 258 W/m 8,1 C 19,4 C 0,0 km/h (0 Bft) 0,00 %
24.06.2015 20:25 19,3 C 48 % 1021,7 hPa 0,0 l/m 0,0 km/h (0 Bft) N-NO 25 5 min 0,000 mm 0,0 UV-I 226 W/m 8,0 C 19,3 C 0,0 km/h (0 Bft) 0,00 %
24.06.2015 20:30 19,1 C 51 % 1021,7 hPa 0,0 l/m 0,0 km/h (0 Bft) N-NO 24 5 min 0,000 mm 0,0 UV-I 195 W/m 8,7 C 19,1 C 0,0 km/h (0 Bft) 0,00 %
24.06.2015 20:35 18,8 C 52 % 1021,9 hPa 0,0 l/m 0,0 km/h (0 Bft) NO 40 5 min 0,000 mm 0,0 UV-I 161 W/m 8,7 C 18,8 C 0,0 km/h (0 Bft) 0,00 %
24.06.2015 20:40 18,3 C 53 % 1021,9 hPa 0,0 l/m 0,0 km/h (0 Bft) NO 40 5 min 0,000 mm 0,0 UV-I 111 W/m 8,6 C 18,3 C 0,0 km/h (0 Bft) 0,00 %
24.06.2015 20:45 17,6 C 56 % 1022,1 hPa 0,0 l/m 0,0 km/h (0 Bft) NO 51 5 min 0,000 mm 0,0 UV-I 35 W/m 8,7 C 17,6 C 0,0 km/h (0 Bft) 0,00 %
24.06.2015 20:50 16,9 C 59 % 1022,2 hPa 0,0 l/m 0,0 km/h (0 Bft) O-NO 68 5 min 0,000 mm 0,0 UV-I 27 W/m 8,8 C 16,9 C 0,0 km/h (0 Bft) 0,00 %
24.06.2015 20:55 16,2 C 62 % 1022,2 hPa 0,0 l/m 0,0 km/h (0 Bft) O-NO 71 5 min 0,000 mm 0,0 UV-I 20 W/m 8,9 C 16,2 C 0,0 km/h (0 Bft) 0,00 %
24.06.2015 21:00 15,5 C 66 % 1022,5 hPa 0,0 l/m 0,0 km/h (0 Bft) NO 56 0 min 0,000 mm 0,0 UV-I 11 W/m 9,2 C 15,5 C 0,0 km/h (0 Bft) 0,00 %
24.06.2015 21:05 14,9 C 68 % 1022,5 hPa 0,0 l/m 0,0 km/h (0 Bft) NO 56 0 min 0,000 mm 0,0 UV-I 6 W/m 9,0 C 14,9 C 0,0 km/h (0 Bft) 0,00 %
24.06.2015 21:10 14,4 C 70 % 1022,8 hPa 0,0 l/m 0,0 km/h (0 Bft) NO 50 0 min 0,000 mm 0,0 UV-I 2 W/m 9,0 C 14,4 C 0,0 km/h (0 Bft) 0,00 %
24.06.2015 21:15 14,0 C 72 % 1022,6 hPa 0,0 l/m 0,0 km/h (0 Bft) NO 53 0 min 0,000 mm 0,0 UV-I 0 W/m 9,0 C 14,0 C 0,0 km/h (0 Bft) 0,00 %
24.06.2015 21:20 13,6 C 72 % 1023,0 hPa 0,0 l/m 0,0 km/h (0 Bft) O-NO 63 0 min 0,000 mm 0,0 UV-I 0 W/m 8,6 C 13,6 C 0,0 km/h (0 Bft) 0,00 %
24.06.2015 21:25 13,2 C 74 % 1023,0 hPa 0,0 l/m 0,0 km/h (0 Bft) NO 55 0 min 0,000 mm 0,0 UV-I 0 W/m 8,7 C 13,2 C 0,0 km/h (0 Bft) 0,00 %
24.06.2015 21:30 12,9 C 74 % 1023,2 hPa 0,0 l/m 0,0 km/h (0 Bft) NO 44 0 min 0,000 mm 0,0 UV-I 0 W/m 8,4 C 12,9 C 0,0 km/h (0 Bft) 0,00 %
24.06.2015 21:35 12,6 C 75 % 1023,1 hPa 0,0 l/m 0,0 km/h (0 Bft) O-NO 63 0 min 0,000 mm 0,0 UV-I 0 W/m 8,3 C 12,6 C 0,0 km/h (0 Bft) 0,00 %
24.06.2015 21:40 12,5 C 75 % 1023,3 hPa 0,0 l/m 0,0 km/h (0 Bft) NO 53 0 min 0,000 mm 0,0 UV-I 0 W/m 8,2 C 12,5 C 0,0 km/h (0 Bft) 0,00 %
24.06.2015 21:45 12,4 C 75 % 1023,4 hPa 0,0 l/m 0,0 km/h (0 Bft) O 81 0 min 0,000 mm 0,0 UV-I 0 W/m 8,1 C 12,4 C 0,0 km/h (0 Bft) 0,00 %
24.06.2015 21:50 12,2 C 76 % 1023,3 hPa 0,0 l/m 0,0 km/h (0 Bft) NO 50 0 min 0,000 mm 0,0 UV-I 0 W/m 8,1 C 12,2 C 0,0 km/h (0 Bft) 0,00 %
24.06.2015 21:55 12,1 C 78 % 1023,3 hPa 0,0 l/m 0,0 km/h (0 Bft) NO 51 0 min 0,000 mm 0,0 UV-I 0 W/m 8,4 C 12,1 C 0,0 km/h (0 Bft) 0,00 %
24.06.2015 22:00 11,9 C 78 % 1023,6 hPa 0,0 l/m 0,0 km/h (0 Bft) NO 56 0 min 0,000 mm 0,0 UV-I 0 W/m 8,2 C 11,9 C 0,0 km/h (0 Bft) 0,00 %
24.06.2015 22:05 11,7 C 79 % 1023,6 hPa 0,0 l/m 0,0 km/h (0 Bft) O-NO 66 0 min 0,000 mm 0,0 UV-I 0 W/m 8,2 C 11,7 C 0,0 km/h (0 Bft) 0,00 %
24.06.2015 22:10 11,6 C 79 % 1023,5 hPa 0,0 l/m 0,0 km/h (0 Bft) NO 52 0 min 0,000 mm 0,0 UV-I 0 W/m 8,1 C 11,6 C 0,0 km/h (0 Bft) 0,00 %
24.06.2015 22:15 11,4 C 79 % 1023,6 hPa 0,0 l/m 0,0 km/h (0 Bft) NO 50 0 min 0,000 mm 0,0 UV-I 0 W/m 7,9 C 11,4 C 0,0 km/h (0 Bft) 0,00 %
24.06.2015 22:20 11,2 C 79 % 1023,7 hPa 0,0 l/m 0,0 km/h (0 Bft) NO 52 0 min 0,000 mm 0,0 UV-I 0 W/m 7,7 C 11,2 C 0,0 km/h (0 Bft) 0,00 %
24.06.2015 22:25 11,0 C 80 % 1023,6 hPa 0,0 l/m 0,0 km/h (0 Bft) NO 54 0 min 0,000 mm 0,0 UV-I 0 W/m 7,7 C 11,0 C 0,0 km/h (0 Bft) 0,00 %
24.06.2015 22:30 10,9 C 81 % 1023,7 hPa 0,0 l/m 0,0 km/h (0 Bft) N-NO 15 0 min 0,000 mm 0,0 UV-I 0 W/m 7,8 C 10,9 C 0,0 km/h (0 Bft) 0,00 %
24.06.2015 22:35 10,8 C 81 % 1023,7 hPa 0,0 l/m 0,0 km/h (0 Bft) NO 48 0 min 0,000 mm 0,0 UV-I 0 W/m 7,7 C 10,8 C 0,0 km/h (0 Bft) 0,00 %
24.06.2015 22:40 10,8 C 82 % 1023,6 hPa 0,0 l/m 0,0 km/h (0 Bft) O 84 0 min 0,000 mm 0,0 UV-I 0 W/m 7,9 C 10,8 C 0,0 km/h (0 Bft) 0,00 %
24.06.2015 22:45 10,7 C 82 % 1023,8 hPa 0,0 l/m 0,0 km/h (0 Bft) NO 53 0 min 0,000 mm 0,0 UV-I 0 W/m 7,8 C 10,7 C 0,0 km/h (0 Bft) 0,00 %
24.06.2015 22:50 10,6 C 82 % 1023,8 hPa 0,0 l/m 0,0 km/h (0 Bft) NO 42 0 min 0,000 mm 0,0 UV-I 0 W/m 7,7 C 10,6 C 0,0 km/h (0 Bft) 0,00 %
24.06.2015 22:55 10,5 C 82 % 1023,8 hPa 0,0 l/m 0,0 km/h (0 Bft) NO 50 0 min 0,000 mm 0,0 UV-I 0 W/m 7,6 C 10,5 C 0,0 km/h (0 Bft) 0,00 %
24.06.2015 23:00 10,4 C 83 % 1023,8 hPa 0,0 l/m 0,0 km/h (0 Bft) NO 48 0 min 0,000 mm 0,0 UV-I 0 W/m 7,6 C 10,4 C 0,0 km/h (0 Bft) 0,00 %
24.06.2015 23:05 10,3 C 83 % 1023,7 hPa 0,0 l/m 0,0 km/h (0 Bft) NO 52 0 min 0,000 mm 0,0 UV-I 0 W/m 7,5 C 10,3 C 0,0 km/h (0 Bft) 0,00 %
24.06.2015 23:10 10,3 C 84 % 1024,0 hPa 0,0 l/m 0,0 km/h (0 Bft) NO 51 0 min 0,000 mm 0,0 UV-I 0 W/m 7,7 C 10,3 C 0,0 km/h (0 Bft) 0,00 %
24.06.2015 23:15 10,2 C 84 % 1023,7 hPa 0,0 l/m 0,0 km/h (0 Bft) O-NO 60 0 min 0,000 mm 0,0 UV-I 0 W/m 7,6 C 10,2 C 0,0 km/h (0 Bft) 0,00 %
24.06.2015 23:20 10,1 C 84 % 1024,0 hPa 0,0 l/m 0,0 km/h (0 Bft) NO 49 0 min 0,000 mm 0,0 UV-I 0 W/m 7,5 C 10,1 C 0,0 km/h (0 Bft) 0,00 %
24.06.2015 23:25 10,0 C 84 % 1023,9 hPa 0,0 l/m 0,0 km/h (0 Bft) NO 52 0 min 0,000 mm 0,0 UV-I 0 W/m 7,4 C 10,0 C 0,0 km/h (0 Bft) 0,00 %
24.06.2015 23:30 10,0 C 85 % 1023,9 hPa 0,0 l/m 0,0 km/h (0 Bft) NO 48 0 min 0,000 mm 0,0 UV-I 0 W/m 7,6 C 10,0 C 0,0 km/h (0 Bft) 0,00 %
24.06.2015 23:35 9,9 C 86 % 1023,9 hPa 0,0 l/m 0,0 km/h (0 Bft) N-NO 28 0 min 0,000 mm 0,0 UV-I 0 W/m 7,7 C 9,9 C 0,0 km/h (0 Bft) 0,00 %
24.06.2015 23:40 9,9 C 86 % 1024,0 hPa 0,0 l/m 0,0 km/h (0 Bft) NO 47 0 min 0,000 mm 0,0 UV-I 0 W/m 7,7 C 9,9 C 0,0 km/h (0 Bft) 0,00 %
24.06.2015 23:45 9,9 C 87 % 1024,1 hPa 0,0 l/m 0,0 km/h (0 Bft) NO 44 0 min 0,000 mm 0,0 UV-I 0 W/m 7,8 C 9,9 C 0,0 km/h (0 Bft) 0,00 %
24.06.2015 23:50 10,0 C 87 % 1024,0 hPa 0,0 l/m 0,4 km/h (0 Bft) W-SW 252 0 min 0,000 mm 0,0 UV-I 0 W/m 7,9 C 10,0 C 4,0 km/h (1 Bft) 0,00 %
_ Min-Zeit 01:30 18:30 00:00 - 00:05 - - - - - - 18:30 01:30 00:05 00:00
Minimum _ 9,2 C 42 % 1017,7 hPa - 0,0 km/h (0 Bft) - - - - - - 6,5 C 9,2 C 0,0 km/h (0 Bft) 0,00 %
_ Max-Zeit 18:55 04:15 23:45 00:00 09:40 - - 05:45 00:00 12:45 15:10 21:00 18:55 09:40 00:00
Maximum _ 20,1 C 89 % 1024,1 hPa 0,0 l/m 8,3 km/h
W-NW (2 Bft)
- - 5 min 0,000 mm 7,0 UV-I 1083 W/m 9,2 C 20,1 C 15,8 km/h
W-NW (3 Bft)
0,00 %
Durchschnitt _ 14,0 C 69 % 1021,0 hPa #0,0 l/m 1,0 km/h (0 Bft) W-SW - #7:40 h #0,000 mm 2,0 UV-I 380 W/m 7,9 C 14,0 C 2,3 km/h (1 Bft) 0,00 %